Regional Weather Roundup
Issued by NWS Cleveland, OH

Home | Current Version | Previous Version | Text Only | Print | Product List | Glossary Off
Versions: 1 2 3 4 5 6 7 8 9 10 11 12 13 14 15 16 17 18 19 20 21 22 23 24 25 26 27 28 29 30 31 32 33 34 35 36 37 38 39 40 41 42 43 44 45 46 47 48 49 50

000
ASUS41 KCLE 311812
RWRCLE
OHIO REGIONAL WEATHER ROUNDUP
NATIONAL WEATHER SERVICE WILMINGTON, OH
200 PM EDT WED AUG 31 2016

NOTE: "FAIR" INDICATES FEW OR NO CLOUDS BELOW 12,000 FEET WITH NO
SIGNIFICANT WEATHER AND/OR OBSTRUCTIONS TO VISIBILITY.

OHZ001>008-015>018-024>027-034-035-043-044-311900-
   NORTHWEST OHIO

CITY           SKY/WX    TMP DP  RH WIND       PRES   REMARKS
DEFIANCE       FAIR      81  68  64 NW7       29.99F
FINDLAY        PTSUNNY   82  68  62 W9        29.97S
TOLEDO EXPRESS FAIR      79  71  76 N10G18    29.97F
TOLEDO EXEC    FAIR      82  70  66 NW5       29.97F
LIMA           FAIR      79  71  76 NW7       29.99F
$$

OHZ009>014-019>023-028>033-038-089-311900-
   NORTHEAST OHIO

CITY           SKY/WX    TMP DP  RH WIND       PRES   REMARKS
CLE-HOPKINS    PTSUNNY   81  68  64 N12       29.97F
CLE-LAKEFRONT  RAIN      74  70  87 W5        29.94F FOG
CUY CO. ARPT   LGT RAIN  75  73  94 NW8       29.97F
LORAIN-ELYRIA  PTSUNNY   78  69  73 N7        29.97F
ASHTABULA      FAIR      74  72  93 SW8       29.98F
AKRON-CANTON   CLOUDY    80  65  59 W6        29.97F
WOOSTER        PTSUNNY   79  70  74 NW7       29.98F
MANSFIELD      PTSUNNY   79  69  71 NW7       29.98F
YOUNGSTOWN     RAIN      69  67  93 E7        29.99F VSB 3/4
$$

OHZ042-051>053-060>062-070>072-077>081-311900-
  SOUTHWEST OHIO

CITY           SKY/WX    TMP DP  RH WIND       PRES   REMARKS
CINC-COVINGTON PTSUNNY   84  71  65 NW6       29.98F
CINC-LUNKEN    FAIR      87  72  60 VRB7      29.97F HX  93
HAMILTON       FAIR      86  70  58 W8        29.98F HX  90
DAYTON         FAIR      82  69  64 W6        29.99F
WRIGHT-PAT AFB SHOWER    81  70  69 NW9       29.97F
DAYTON GENERAL FAIR      85  68  56 NW7       29.98F
WILMINGTON     CLOUDY    83  70  64 NW5       29.98F
$$

OHZ036-037-039>041-045>050-054>059-063>069-073>076-082>088-311900-
  CENTRAL AND SOUTHEAST OHIO

CITY           SKY/WX    TMP DP  RH WIND       PRES   REMARKS
COLUMBUS       PTSUNNY   83  68  60 W8        29.96F
OSU AIRPORT    PTSUNNY   81  70  69 NW10      29.97F
BOLTON FIELD   HVY RAIN  84  72  65 W9        29.97F
RICKENBACK AFB FAIR      83  69  61 W7        29.96F
NEWARK         FAIR      85  69  58 W7        29.96F
MARION         PTSUNNY   81  68  64 N10       29.98F
LANCASTER      FAIR      85  68  56 W7        29.97F
ZANESVILLE     FAIR      89  64  43 VRB6      29.96F HX  90
NEW PHILLY     CLOUDY    87  63  44 VRB5      29.96F
$$




USA.gov is the U.S. government's official web portal to all federal, state and local government web resources and services.